FW1241 Weather Reports


Display with metric or nautical units.
time (UTC)temp
F
wind
direction
speed
MPH
gust
MPH
rain 1hr
in
rain 24hr
in
rain mn
in
humidity
%
barometer
mb
20171125020600 61 215 0.0 0.0 0.00 0.00 0.00 85 1015.6
20171125020101 61 215 0.0 0.0 0.00 0.00 0.00 84 1015.5
20171125015101 62 215 0.0 0.0 0.00 0.00 0.00 83 1015.6
20171125013101 62 215 0.0 0.0 0.00 0.00 0.00 82 1015.5
20171125012101 63 215 0.0 0.0 0.00 0.00 0.00 81 1015.5
20171125011101 64 215 0.0 0.0 0.00 0.00 0.00 79 1015.5
20171125010601 64 215 0.0 0.0 0.00 0.00 0.00 78 1015.4
20171125010101 64 215 0.0 0.0 0.00 0.00 0.00 77 1015.3
20171125005600 65 215 0.0 0.0 0.00 0.00 0.00 77 1015.4
20171125005104 65 215 0.0 0.0 0.00 0.00 0.00 76 1015.5
20171125004101 66 215 0.0 0.0 0.00 0.00 0.00 75 1015.6
20171125003601 66 215 0.0 0.0 0.00 0.00 0.00 75 1015.6
20171125003101 66 215 0.0 0.0 0.00 0.00 0.00 75 1015.5
20171125001101 68 215 0.0 0.0 0.00 0.00 0.00 71 1015.3
20171125000600 68 215 0.0 0.0 0.00 0.00 0.00 71 1015.4
20171124235601 69 215 0.0 0.0 0.00 0.00 0.00 70 1015.2
20171124235101 69 215 0.0 0.0 0.00 0.00 0.00 70 1015.2
20171124234601 69 215 0.0 0.0 0.00 0.00 0.00 67 1015.3
20171124234101 70 215 0.0 0.0 0.00 0.00 0.00 67 1015.3
20171124233101 70 285 0.0 0.0 0.00 0.00 0.00 64 1015.4
20171124231100 71 283 0.0 1.0 0.00 0.00 0.00 64 1015.6
20171124225600 71 145 0.0 1.0 0.00 0.00 0.00 64 1015.4
20171124225101 71 143 0.0 2.0 0.00 0.00 0.00 63 1015.4
20171124224601 72 94 0.0 1.0 0.00 0.00 0.00 64 1015.3
20171124224101 72 195 0.0 0.0 0.00 0.00 0.00 63 1015.4
20171124223601 72 195 0.0 1.0 0.00 0.00 0.00 62 1015.4
20171124221100 72 305 0.0 1.0 0.00 0.00 0.00 61 1015.6
20171124220101 72 327 0.0 1.0 0.00 0.00 0.00 61 1015.5
20171124215601 72 163 0.0 3.0 0.00 0.00 0.00 62 1015.5
20171124215101 72 86 0.0 1.0 0.00 0.00 0.00 61 1015.7
20171124214601 72 141 0.0 2.0 0.00 0.00 0.00 62 1015.8
20171124213100 72 141 0.0 2.0 0.00 0.00 0.00 62 1015.8
20171124212601 72 143 0.0 2.0 0.00 0.00 0.00 63 1015.8
20171124212101 72 163 1.0 3.0 0.00 0.00 0.00 61 1016.0
20171124211601 72 165 1.0 2.0 0.00 0.00 0.00 63 1016.0
20171124211101 72 158 0.0 0.0 0.00 0.00 0.00 62 1016.2
20171124210601 71 156 0.0 1.0 0.00 0.00 0.00 63 1016.3
20171124210101 71 151 0.0 3.0 0.00 0.00 0.00 64 1016.2
20171124205601 71 200 1.0 2.0 0.00 0.00 0.00 64 1016.3
20171124205101 71 171 0.0 2.0 0.00 0.00 0.00 64 1016.4
20171124204600 71 300 1.0 2.0 0.00 0.00 0.00 63 1016.5
20171124202600 71 335 0.0 2.0 0.00 0.00 0.00 63 1016.8
20171124202101 71 0 0.0 1.0 0.00 0.00 0.00 62 1016.9
20171124201600 71 153 0.0 2.0 0.00 0.00 0.00 64 1017.1
20171124201101 71 165 0.0 1.0 0.00 0.00 0.00 64 1017.0
20171124200601 71 327 0.0 2.0 0.00 0.00 0.00 63 1017.2
20171124200101 71 153 1.0 3.0 0.00 0.00 0.00 64 1017.2
20171124195601 70 139 0.0 1.0 0.00 0.00 0.00 65 1017.2
20171124194600 70 104 0.0 2.0 0.00 0.00 0.00 66 1017.5
20171124194101 70 348 1.0 3.0 0.00 0.00 0.00 64 1017.5
20171124193600 70 189 0.0 1.0 0.00 0.00 0.00 64 1017.7
20171124193101 69 92 0.0 2.0 0.00 0.00 0.00 63 1017.8
20171124192601 69 129 1.0 3.0 0.00 0.00 0.00 65 1017.9
20171124192100 69 83 1.0 2.0 0.00 0.00 0.00 64 1018.0
20171124191600 69 266 0.0 1.0 0.00 0.00 0.00 63 1018.2
20171124191101 69 103 1.0 5.0 0.00 0.00 0.00 65 1018.3
20171124185601 68 128 1.0 3.0 0.00 0.00 0.00 67 1018.4
20171124185101 68 138 0.0 3.0 0.00 0.00 0.00 68 1018.4
20171124184601 68 103 1.0 3.0 0.00 0.00 0.00 67 1018.5
20171124184100 67 148 0.0 3.0 0.00 0.00 0.00 67 1018.7
20171124183601 67 148 0.0 3.0 0.00 0.00 0.00 68 1018.7
20171124182101 67 178 0.0 1.0 0.00 0.00 0.00 70 1019.0
20171124181601 66 167 0.0 0.0 0.00 0.00 0.00 70 1019.1
20171124181101 66 131 0.0 2.0 0.00 0.00 0.00 71 1019.2
20171124180601 65 104 1.0 3.0 0.00 0.00 0.00 70 1019.2
20171124180101 65 106 0.0 3.0 0.00 0.00 0.00 71 1019.2
20171124175601 65 137 1.0 3.0 0.00 0.00 0.00 70 1019.2
20171124175101 65 131 0.0 2.0 0.00 0.00 0.00 71 1019.2
20171124173101 64 135 0.0 3.0 0.00 0.00 0.00 73 1019.1
20171124171601 63 115 0.0 1.0 0.00 0.00 0.00 77 1019.2
20171124171101 62 123 0.0 1.0 0.00 0.00 0.00 79 1019.3
20171124170601 61 128 0.0 2.0 0.00 0.00 0.00 80 1019.4
20171124165601 60 119 0.0 1.0 0.00 0.00 0.00 84 1019.1
20171124164101 59 120 0.0 1.0 0.00 0.00 0.00 85 1019.2
20171124163101 58 184 0.0 1.0 0.00 0.00 0.00 86 1019.2
20171124162601 58 92 0.0 0.0 0.00 0.00 0.00 88 1019.2
20171124162101 57 92 0.0 1.0 0.00 0.00 0.00 88 1019.0
20171124161600 56 84 0.0 0.0 0.00 0.00 0.00 89 1018.9
20171124161101 55 83 0.0 0.0 0.00 0.00 0.00 90 1019.1
20171124155601 53 83 0.0 0.0 0.00 0.00 0.00 92 1019.2
20171124152101 50 83 0.0 0.0 0.00 0.00 0.00 94 1018.7
20171124151600 50 83 0.0 0.0 0.00 0.00 0.00 94 1019.0
20171124150601 51 83 0.0 0.0 0.00 0.00 0.00 94 1019.0
20171124145101 50 83 0.0 1.0 0.00 0.00 0.00 94 1018.6
20171124144102 49 83 0.0 0.0 0.00 0.00 0.00 93 1018.6
20171124142101 50 83 0.0 1.0 0.00 0.00 0.00 93 1018.9
20171124140601 50 83 0.0 0.0 0.00 0.00 0.00 93 1019.0
20171124135101 50 83 0.0 0.0 0.00 0.00 0.00 93 1018.6
20171124134601 50 83 0.0 0.0 0.00 0.00 0.00 94 1018.5
20171124134101 50 83 0.0 1.0 0.00 0.00 0.00 94 1018.4
20171124133601 50 83 0.0 0.0 0.00 0.00 0.00 94 1018.5
20171124133101 50 83 0.0 1.0 0.00 0.00 0.00 94 1018.4
20171124132601 50 83 0.0 1.0 0.00 0.00 0.00 94 1018.4
20171124132101 50 83 0.0 1.0 0.00 0.00 0.00 94 1018.4
20171124131601 50 83 0.0 1.0 0.00 0.00 0.00 94 1018.6
20171124130601 50 83 0.0 1.0 0.00 0.00 0.00 95 1018.6
20171124130101 49 83 0.0 0.0 0.00 0.00 0.00 95 1018.8
20171124124601 49 83 0.0 0.0 0.00 0.00 0.00 94 1018.9
20171124123601 49 83 0.0 0.0 0.00 0.00 0.00 94 1018.5
20171124123101 49 83 0.0 0.0 0.00 0.00 0.00 94 1018.5
20171124122601 50 83 0.0 0.0 0.00 0.00 0.00 94 1018.4
20171124121601 50 83 0.0 0.0 0.00 0.00 0.00 93 1018.5
20171124121101 50 83 0.0 0.0 0.00 0.00 0.00 93 1018.7
20171124120601 50 83 0.0 0.0 0.00 0.00 0.00 93 1018.8
20171124120101 50 83 0.0 0.0 0.00 0.00 0.00 93 1018.8
20171124115101 51 83 0.0 1.0 0.00 0.00 0.00 93 1018.5
20171124114101 51 83 0.0 0.0 0.00 0.00 0.00 93 1018.1
20171124113601 51 83 0.0 0.0 0.00 0.00 0.00 93 1018.3
20171124112602 51 83 0.0 0.0 0.00 0.00 0.00 92 1018.1
20171124112101 51 83 0.0 0.0 0.00 0.00 0.00 92 1018.1
20171124111601 52 83 0.0 1.0 0.00 0.00 0.00 93 1018.1
20171124111101 51 83 0.0 1.0 0.00 0.00 0.00 92 1018.1
20171124110102 52 83 0.0 0.0 0.00 0.00 0.00 91 1018.2
20171124105601 52 83 0.0 0.0 0.00 0.00 0.00 91 1018.3
20171124104601 53 83 0.0 1.0 0.00 0.00 0.00 91 1018.2
20171124103601 53 82 0.0 1.0 0.00 0.00 0.00 91 1018.4
20171124103101 53 81 0.0 1.0 0.00 0.00 0.00 92 1018.4
20171124102601 52 81 0.0 0.0 0.00 0.00 0.00 91 1018.4
20171124102101 52 81 0.0 0.0 0.00 0.00 0.00 92 1018.4
20171124095601 53 81 0.0 1.0 0.00 0.00 0.00 91 1018.4
20171124094601 53 102 0.0 1.0 0.00 0.00 0.00 93 1018.3
20171124094101 52 101 0.0 1.0 0.00 0.00 0.00 93 1018.5
20171124093601 52 110 0.0 0.0 0.00 0.00 0.00 94 1018.6
20171124093101 52 109 0.0 0.0 0.00 0.00 0.00 93 1018.6
20171124091600 52 108 0.0 0.0 0.00 0.00 0.00 93 1018.8
20171124091101 52 108 0.0 0.0 0.00 0.00 0.00 93 1018.7
20171124090102 52 109 0.0 0.0 0.00 0.00 0.00 93 1018.8
20171124085601 52 109 0.0 0.0 0.00 0.00 0.00 92 1018.7
20171124085102 52 109 0.0 0.0 0.00 0.00 0.00 92 1018.7
20171124084101 52 108 0.0 0.0 0.00 0.00 0.00 93 1018.5
20171124083101 52 109 0.0 0.0 0.00 0.00 0.00 93 1018.7
20171124082601 52 109 0.0 0.0 0.00 0.00 0.00 93 1018.7
20171124081601 52 109 0.0 0.0 0.00 0.00 0.00 93 1018.6
20171124081102 52 109 0.0 0.0 0.00 0.00 0.00 93 1018.6
20171124080601 52 109 0.0 0.0 0.00 0.00 0.00 92 1018.6
20171124080101 52 109 0.0 0.0 0.00 0.00 0.00 92 1018.7
20171124075101 52 109 0.0 0.0 0.00 0.00 0.00 92 1018.6
20171124074601 52 109 0.0 0.0 0.00 0.00 0.00 92 1018.6
20171124073601 52 109 0.0 0.0 0.00 0.00 0.00 91 1018.5
20171124073102 53 108 0.0 1.0 0.00 0.00 0.00 90 1018.6
20171124072102 54 110 0.0 0.0 0.00 0.00 0.00 90 1018.4
20171124071102 54 109 0.0 0.0 0.00 0.00 0.00 90 1018.6
20171124070103 55 109 0.0 0.0 0.00 0.00 0.00 90 1018.6
20171124065602 55 109 0.0 0.0 0.00 0.00 0.00 90 1018.6
20171124064601 55 109 0.0 0.0 0.00 0.00 0.00 89 1018.8
20171124062601 56 108 0.0 1.0 0.00 0.00 0.00 88 1018.7
20171124061601 55 94 0.0 0.0 0.00 0.00 0.00 89 1018.9
20171124060600 55 94 0.0 0.0 0.00 0.00 0.00 88 1019.0
20171124060101 56 94 0.0 0.0 0.00 0.00 0.00 88 1018.9
20171124055101 55 94 0.0 0.0 0.00 0.00 0.00 89 1018.8
20171124054101 55 94 0.0 0.0 0.00 0.00 0.00 89 1018.7
20171124053601 55 94 0.0 0.0 0.00 0.00 0.00 89 1018.7
20171124052601 55 291 0.0 0.0 0.00 0.00 0.00 90 1018.8
20171124052101 55 290 0.0 0.0 0.00 0.00 0.00 90 1018.8
20171124051601 55 291 0.0 0.0 0.00 0.00 0.00 89 1018.6
20171124051100 55 290 0.0 0.0 0.00 0.00 0.00 89 1018.5
20171124044101 56 290 0.0 0.0 0.00 0.00 0.00 87 1018.2
20171124042101 57 290 0.0 0.0 0.00 0.00 0.00 86 1018.0
20171124041602 57 290 0.0 0.0 0.00 0.00 0.00 86 1018.0
20171124041101 57 290 0.0 0.0 0.00 0.00 0.00 86 1018.1
20171124040601 58 290 0.0 0.0 0.00 0.00 0.00 86 1018.0
20171124035601 58 291 0.0 0.0 0.00 0.00 0.00 86 1018.2
20171124035101 58 290 0.0 0.0 0.00 0.00 0.00 86 1018.2
20171124034602 58 291 0.0 0.0 0.00 0.00 0.00 86 1018.0
20171124033602 58 291 0.0 0.0 0.00 0.00 0.00 86 1018.2
20171124033101 58 290 0.0 0.0 0.00 0.00 0.00 85 1018.1
20171124032602 58 291 0.0 0.0 0.00 0.00 0.00 85 1018.1
20171124031101 59 290 0.0 0.0 0.00 0.00 0.00 84 1017.9
20171124030601 59 291 0.0 0.0 0.00 0.00 0.00 83 1018.0
20171124030101 59 290 0.0 0.0 0.00 0.00 0.00 82 1017.9
20171124025602 60 290 0.0 0.0 0.00 0.00 0.00 82 1017.8
20171124025102 60 290 0.0 0.0 0.00 0.00 0.00 82 1017.7
20171124024101 60 291 0.0 0.0 0.00 0.00 0.00 83 1017.6
20171124023601 60 290 0.0 0.0 0.00 0.00 0.00 82 1017.6
20171124023101 60 290 0.0 0.0 0.00 0.00 0.00 81 1017.4
20171124022602 60 291 0.0 0.0 0.00 0.00 0.00 81 1017.4
20171124022102 61 290 0.0 0.0 0.00 0.00 0.00 81 1017.4
20171124021601 61 290 0.0 0.0 0.00 0.00 0.00 81 1017.4